Weather History for Galesburg, IL

Change the Weather History Date:

Sunday, December 16, 2012

  Actual Average Record
Temperature  
Mean Temperature 42 °F -  
Max Temperature 48 °F 33 °F 58 °F (1984)
Min Temperature 35 °F 18 °F -12 °F (1963)
Degree Days  
Heating Degree Days 24    
Moisture  
Dew Point 36 °F    
Average Humidity 87    
Maximum Humidity 92    
Minimum Humidity 82    
Precipitation  
Precipitation 0.00 in - - ()
Sea Level Pressure  
Sea Level Pressure 29.70 in    
Wind  
Wind Speed 9 mph (West)    
Max Wind Speed 17 mph    
Max Gust Speed 22 mph    
Visibility 8 miles    
Events      
Averages and records for this station are not official NWS values.
T = Trace of Precipitation, MM = Missing Value Source: NWS Daily Summary

Daily Weather History Graph

Daily Weather History Graph

Search for Another Location

Airport:

Trip Planner

Search our weather history database for the weather conditions in past years. The results will help you decide how hot, cold, wet, or windy it might be!

Date:

Astronomy

Dec. 16, 2012 Rise Set
Actual Time 7:20 AM CST 4:34 PM CST
Civil Twilight 6:49 AM CST 5:06 PM CST
Nautical Twilight 6:14 AM CST 5:40 PM CST
Astronomical Twilight 5:41 AM CST 6:14 PM CST
Moon 9:52 AM CST (12/16) 8:50 PM CST (12/16)
Length of Visible Light 10h 16m
Length of Day
9h 14m
Waxing Crescent, 16% of the Moon is Illuminated
Dec 16
Waxing Crescent
Dec 19
First Quarter
Dec 28
Full
Jan 4
Last Quarter
Jan 11
New

Hourly Weather History & Observations

Time (CST) Temp. Windchill Dew Point Humidity Pressure Visibility Wind Dir Wind Speed Gust Speed Precip Events Conditions
12:15 AM 47.3 °F - 43.5 °F 87% 29.61 in 10.0 mi SW 10.4 mph - N/A   Overcast
12:35 AM 48.2 °F - 42.8 °F 82% 29.61 in 10.0 mi SW 9.2 mph - N/A   Overcast
12:55 AM 46.8 °F - 42.8 °F 86% 29.61 in 10.0 mi SW 8.1 mph - N/A   Overcast
1:15 AM 46.6 °F - 43.0 °F 87% 29.61 in 10.0 mi SW 9.2 mph - N/A   Overcast
1:35 AM 46.4 °F 41.9 °F 42.8 °F 87% 29.62 in 10.0 mi SW 9.2 mph - N/A   Overcast
1:55 AM 46.4 °F 41.5 °F 42.8 °F 87% 29.62 in 10.0 mi SW 10.4 mph - N/A   Overcast
2:15 AM 46.4 °F 41.5 °F 42.8 °F 87% 29.63 in 10.0 mi SW 10.4 mph - N/A   Overcast
2:35 AM 46.4 °F 41.9 °F 42.8 °F 87% 29.63 in 10.0 mi WSW 9.2 mph - N/A   Overcast
2:55 AM 46.0 °F 41.4 °F 42.1 °F 86% 29.63 in 10.0 mi WSW 9.2 mph - N/A   Overcast
3:15 AM 45.7 °F 40.6 °F 41.7 °F 86% 29.63 in 10.0 mi West 10.4 mph - N/A   Overcast
3:35 AM 44.6 °F 37.2 °F 41.0 °F 87% 29.64 in 7.0 mi West 17.3 mph 21.9 mph N/A   Overcast
3:55 AM 43.5 °F 37.1 °F 40.1 °F 88% 29.63 in 7.0 mi West 12.7 mph - N/A   Overcast
4:15 AM 42.6 °F 35.9 °F 39.6 °F 89% 29.63 in 7.0 mi West 12.7 mph 18.4 mph N/A   Overcast
4:35 AM 41.9 °F 34.0 °F 39.2 °F 90% 29.64 in 5.0 mi West 16.1 mph - N/A   Overcast
4:55 AM 41.4 °F 34.0 °F 39.0 °F 91% 29.65 in 5.0 mi West 13.8 mph 17.3 mph N/A   Overcast
5:15 AM 41.2 °F 33.7 °F 38.3 °F 89% 29.65 in 7.0 mi West 13.8 mph - N/A   Overcast
5:35 AM 41.0 °F 33.5 °F 37.8 °F 88% 29.65 in 5.0 mi West 13.8 mph 18.4 mph N/A   Overcast
5:55 AM 40.3 °F 32.2 °F 36.9 °F 88% 29.66 in 7.0 mi West 15.0 mph 20.7 mph N/A   Overcast
6:15 AM 39.7 °F 32.7 °F 37.2 °F 91% 29.67 in 7.0 mi West 11.5 mph - N/A   Overcast
6:35 AM 39.4 °F 32.3 °F 36.9 °F 91% 29.68 in 7.0 mi West 11.5 mph - N/A   Overcast
6:55 AM 39.6 °F 34.0 °F 36.5 °F 89% 29.69 in 10.0 mi West 8.1 mph - N/A   Overcast
7:15 AM 39.0 °F 33.4 °F 36.7 °F 91% 29.69 in 7.0 mi West 8.1 mph - N/A   Overcast
7:35 AM 38.8 °F 33.2 °F 36.7 °F 92% 29.69 in 5.0 mi West 8.1 mph - N/A   Overcast
7:55 AM 38.8 °F 32.6 °F 36.5 °F 91% 29.69 in 5.0 mi West 9.2 mph - N/A   Overcast
8:15 AM 38.7 °F 32.4 °F 36.5 °F 92% 29.69 in 7.0 mi West 9.2 mph - N/A   Overcast
8:35 AM 38.5 °F 30.7 °F 35.8 °F 90% 29.71 in 7.0 mi West 12.7 mph - N/A   Overcast
8:55 AM 38.3 °F 30.5 °F 35.6 °F 90% 29.71 in 5.0 mi West 12.7 mph - N/A   Overcast
9:15 AM 38.3 °F 31.9 °F 35.6 °F 90% 29.71 in 5.0 mi West 9.2 mph - N/A   Overcast
9:35 AM 38.7 °F 31.8 °F 35.6 °F 89% 29.72 in 7.0 mi West 10.4 mph - N/A   Overcast
9:55 AM 38.7 °F 30.9 °F 35.4 °F 88% 29.73 in 7.0 mi West 12.7 mph - N/A   Overcast
10:15 AM 38.7 °F 31.8 °F 35.6 °F 89% 29.73 in 7.0 mi West 10.4 mph - N/A   Overcast
10:35 AM 39.2 °F 33.0 °F 35.6 °F 87% 29.72 in 7.0 mi West 9.2 mph - N/A   Overcast
10:55 AM 39.2 °F 32.5 °F 35.6 °F 87% 29.71 in 10.0 mi West 10.4 mph - N/A   Overcast
11:15 AM 39.2 °F 31.6 °F 34.9 °F 84% 29.71 in 10.0 mi WNW 12.7 mph - N/A   Overcast
11:35 AM 38.7 °F 30.9 °F 34.7 °F 86% 29.70 in 10.0 mi West 12.7 mph - N/A   Overcast
11:55 AM 38.5 °F 31.6 °F 34.7 °F 86% 29.70 in 10.0 mi WNW 10.4 mph - N/A   Overcast
12:15 PM 38.8 °F 33.2 °F 34.7 °F 85% 29.69 in 10.0 mi WNW 8.1 mph - N/A   Overcast
12:35 PM 38.7 °F 30.9 °F 34.9 °F 86% 29.69 in 10.0 mi WNW 12.7 mph 17.3 mph N/A   Overcast
12:55 PM 38.7 °F 31.8 °F 34.7 °F 86% 29.68 in 10.0 mi WNW 10.4 mph - N/A   Overcast
1:15 PM 38.7 °F 30.9 °F 34.7 °F 86% 29.68 in 10.0 mi WNW 12.7 mph - N/A   Overcast
1:35 PM 38.7 °F 30.5 °F 34.7 °F 86% 29.68 in 7.0 mi West 13.8 mph 18.4 mph N/A   Overcast
1:55 PM 38.3 °F 31.4 °F 34.9 °F 87% 29.68 in 7.0 mi WNW 10.4 mph - N/A   Overcast
2:15 PM 38.5 °F 32.1 °F 34.5 °F 86% 29.67 in 7.0 mi NW 9.2 mph - N/A   Overcast
2:35 PM 38.3 °F 33.2 °F 34.5 °F 86% 29.67 in 7.0 mi WNW 6.9 mph - N/A   Overcast
2:55 PM 38.5 °F 32.7 °F 34.3 °F 85% 29.66 in 10.0 mi NW 8.1 mph - N/A   Overcast
3:35 PM 37.8 °F 32.5 °F 33.4 °F 84% 29.68 in 10.0 mi NW 6.9 mph - N/A   Overcast
3:55 PM 37.8 °F 32.5 °F 33.3 °F 84% 29.69 in 10.0 mi NW 6.9 mph - N/A   Overcast
4:15 PM 37.8 °F 34.2 °F 33.6 °F 85% 29.71 in 10.0 mi WNW 4.6 mph - N/A   Overcast
4:35 PM 37.6 °F 34.0 °F 34.0 °F 87% 29.71 in 10.0 mi WNW 4.6 mph - N/A   Overcast
4:55 PM 37.6 °F - 33.8 °F 86% 29.72 in 10.0 mi Calm Calm - N/A   Overcast
5:15 PM 37.4 °F 34.9 °F 33.8 °F 87% 29.73 in 10.0 mi NW 3.5 mph - N/A   Overcast
5:35 PM 37.4 °F - 34.2 °F 88% 29.74 in 10.0 mi Calm Calm - N/A   Overcast
5:55 PM 37.4 °F - 34.2 °F 88% 29.74 in 7.0 mi Calm Calm - N/A   Overcast
6:15 PM 37.4 °F 34.9 °F 34.0 °F 87% 29.74 in 10.0 mi WNW 3.5 mph - N/A   Overcast
6:35 PM 37.4 °F 34.9 °F 34.0 °F 87% 29.75 in 7.0 mi WNW 3.5 mph - N/A   Overcast
6:55 PM 37.4 °F 33.8 °F 34.3 °F 89% 29.74 in 7.0 mi WNW 4.6 mph - N/A   Overcast
7:15 PM 37.2 °F 34.7 °F 34.3 °F 89% 29.74 in 7.0 mi NW 3.5 mph - N/A   Overcast
7:35 PM 37.4 °F 34.9 °F 34.0 °F 87% 29.74 in 10.0 mi NW 3.5 mph - N/A   Overcast
7:55 PM 37.4 °F 32.1 °F 33.8 °F 87% 29.74 in 7.0 mi NW 6.9 mph - N/A   Overcast
8:15 PM 36.9 °F 32.2 °F 33.4 °F 87% 29.74 in 7.0 mi NW 5.8 mph - N/A   Overcast
8:35 PM 36.7 °F 32.9 °F 33.1 °F 87% 29.75 in 7.0 mi WNW 4.6 mph - N/A   Overcast
8:55 PM 36.7 °F 30.5 °F 32.9 °F 86% 29.75 in 10.0 mi West 8.1 mph - N/A   Overcast
9:15 PM 36.5 °F 32.7 °F 32.9 °F 87% 29.76 in 10.0 mi WNW 4.6 mph - N/A   Overcast
9:35 PM 36.7 °F 32.9 °F 32.2 °F 84% 29.77 in 10.0 mi West 4.6 mph - N/A   Overcast
9:55 PM 36.5 °F 33.9 °F 32.7 °F 86% 29.76 in 10.0 mi NW 3.5 mph - N/A   Overcast
10:15 PM 36.3 °F 32.5 °F 32.5 °F 86% 29.76 in 10.0 mi West 4.6 mph - N/A   Overcast
10:35 PM 36.0 °F 33.3 °F 32.9 °F 89% 29.76 in 7.0 mi West 3.5 mph - N/A   Overcast
10:55 PM 35.6 °F 32.8 °F 32.5 °F 89% 29.76 in 7.0 mi West 3.5 mph - N/A   Overcast
11:15 PM 36.0 °F - 32.0 °F 86% 29.77 in 10.0 mi Calm Calm - N/A   Overcast
11:35 PM 35.8 °F - 32.0 °F 86% 29.76 in 10.0 mi Calm Calm - N/A   Overcast
11:55 PM 35.1 °F - 32.0 °F 89% 29.75 in 10.0 mi Calm Calm - N/A   Overcast